This is the latest recevied weather packets stored in our database for station/object VK2BLR. If no packets are shown the sender has not sent any weather packets the latest 10 day(s).
| Time | Temp. | Humidity | Pressure | Rain* | Wind** | Luminosity | Snow |
|---|---|---|---|---|---|---|---|
| 1778064814 | 12.22° C | 72% | 1017.3 hPa | 0 mm | - | - | - |
| 1778063913 | 12.78° C | 70% | 1017.3 hPa | 0 mm | - | - | - |
| 1778063013 | 12.78° C | 69% | 1017.4 hPa | 0 mm | - | - | - |
| 1778062114 | 12.78° C | 68% | 1017.3 hPa | 0 mm | - | - | - |
| 1778061213 | 12.78° C | 68% | 1017.3 hPa | 0 mm | - | - | - |
| 1778060314 | 12.78° C | 67% | 1017.1 hPa | 0 mm | - | - | - |
| 1778059414 | 12.78° C | 67% | 1017.2 hPa | 0 mm | - | - | - |
| 1778058514 | 13.33° C | 66% | 1017.1 hPa | 0 mm | - | - | - |
| 1778057613 | 13.89° C | 64% | 1017.1 hPa | 0 mm | - | - | - |
| 1778056712 | 13.89° C | 62% | 1017 hPa | 0 mm | - | - | - |
| 1778055814 | 14.44° C | 61% | 1016.9 hPa | 0 mm | - | - | - |
| 1778054913 | 15° C | 60% | 1016.8 hPa | 0 mm | - | - | - |
| 1778054012 | 15.56° C | 59% | 1016.8 hPa | 0 mm | - | - | - |
| 1778053112 | 15.56° C | 55% | 1016.7 hPa | 0 mm | - | - | - |
| 1778052214 | 15.56° C | 53% | 1016.6 hPa | 0 mm | - | - | - |
| 1778051314 | 16.11° C | 51% | 1016.4 hPa | 0 mm | - | - | - |
| 1778050413 | 16.67° C | 53% | 1016.5 hPa | 0 mm | - | - | - |
| 1778049514 | 17.22° C | 53% | 1016.5 hPa | 0 mm | - | - | - |
| 1778048613 | 17.78° C | 51% | 1016.6 hPa | 0 mm | - | - | - |
| 1778047714 | 18.33° C | 51% | 1016.6 hPa | 0 mm | - | - | - |
| 1778046813 | 18.33° C | 51% | 1016.6 hPa | 0 mm | - | - | - |
| 1778045914 | 18.89° C | 51% | 1016.5 hPa | 0 mm | - | - | - |
| 1778045013 | 18.89° C | 53% | 1016.5 hPa | 0 mm | - | - | - |
| 1778044113 | 18.89° C | 53% | 1016.3 hPa | 0 mm | - | - | - |
| 1778043213 | 18.89° C | 52% | 1016.5 hPa | 0 mm | - | - | - |
* Rain latest hour (hover to see other rain measurements)
** Current wind speed in m/s (hover to see current wind gust speed)